Location: Newark
(52.3735°N, 16.9806°E)
Time: 13:26:24
(UTC+00:00)

Envisat - Pass Details

Date: 20 September 2021
Orbit: 764 x 766 km, 98.2° (Epoch: 23 October)

Event Time Altitude Azimuth Distance (km) Brightness Sun altitude
Rises 03:40:43 0° 18° (NNE) 3,246 6.7 -9.0°
Reaches altitude 10° 03:43:08 10° 25° (NNE) 2,315 6.1 -8.6°
Maximum altitude 03:48:02 45° 98° (E) 1,041 4.3 -7.9°
Drops below altitude 10° 03:52:52 10° 171° (S) 2,297 5.5 -7.2°
Sets 03:55:16 0° 177° (S) 3,218 6.1 -6.8°
